Location: Nashville
(36.1627°N, 86.7816°W)
Time: 16:44:55
(UTC-05:00)

ISS - Visible Passes

Search period start: 13 September 2024 00:00
Search period end: 23 September 2024 00:00
Orbit: 414 x 424 km, 51.6° (Epoch: 13 September)

Date Brightness Start Highest point End Pass type
(mag) Time Alt. Az. Time Alt. Az. Time Alt. Az.
13 Sep -0.9 20:38:02 10° WNW 20:40:15 16° NNW 20:42:29 10° NNE visible
14 Sep -1.5 19:49:46 10° W 19:52:33 23° NNW 19:55:20 10° NNE visible
16 Sep -0.8 19:53:08 10° NW 19:54:29 12° NNW 19:55:50 10° N visible
